Date String (YYYY-MM-DD hh:mm:ss) UTC,Instrument flags,Ambient pressure (hPa),Sample flow (lpm),Bypass flow (lpm),Sample temperature (°C),Ambient temperature (°C),ASC tube jacket temperature (°C),LED temperature (°C),Box temperature (°C),Sample RH (%),Span deviation,Mass concentration (μg/m³),Mass concentration (μg/m³),Mass concentration (μg/m³)
DateTimeUTC,F1_M11,P_M11,Q1_M11,Q2_M11,T1_M11,T2_M11,T3_M11,T4_M11,T5_M11,U1_M11,ZSPAN_M11,X0_M11,X2_M11,X1_M11
2022-09-10 17:00:00,,0833.9,5.01,0.00,27.7,26.2,00.0,36.5,29.6,26.2,0000.0,0004.06,0003.17,0002.90
2022-09-10 17:01:00,,0833.9,5.01,0.00,27.7,26.2,00.0,36.5,29.6,26.2,0000.0,0004.07,0003.17,0002.90
2022-09-10 17:02:00,,0833.9,4.99,0.00,27.7,26.2,00.0,36.5,29.6,26.3,0000.0,0004.12,0003.19,0002.92
2022-09-10 17:03:00,,0833.9,5.01,0.00,27.7,26.2,00.0,36.5,29.6,26.5,0000.0,0004.11,0003.19,0002.94
2022-09-10 17:04:00,,0833.9,5.00,0.00,27.7,26.2,00.0,36.5,29.6,26.7,0000.0,0004.05,0003.18,0002.95
2022-09-10 17:05:00,,0833.9,5.01,0.00,27.7,26.2,00.0,36.5,29.6,26.6,0000.0,0004.09,0003.19,0002.96
2022-09-10 17:06:00,,0834.0,4.98,0.00,27.7,26.2,00.0,36.5,29.6,26.3,0000.0,0004.22,0003.22,0002.98
2022-09-10 17:07:00,,0834.0,5.00,0.00,27.7,26.2,00.0,36.5,29.6,26.2,0000.0,0004.32,0003.23,0003.01
2022-09-10 17:08:00,,0834.0,5.01,0.00,27.7,26.2,00.0,36.5,29.6,26.1,0000.0,0004.36,0003.24,0003.02
2022-09-10 17:09:00,,0834.0,5.00,0.00,27.7,26.2,00.0,36.5,29.6,26.2,0000.0,0004.51,0003.26,0003.03
2022-09-10 17:10:00,,0834.0,4.98,0.00,27.8,26.2,00.0,36.5,29.6,26.2,0000.0,0004.43,0003.23,0003.00
2022-09-10 17:11:00,,0834.0,5.01,0.00,27.8,26.3,00.0,36.5,29.6,26.1,0000.0,0004.30,0003.20,0002.98
2022-09-10 17:12:00,,0834.0,5.00,0.00,27.8,26.3,00.0,36.5,29.6,26.0,0000.0,0004.27,0003.20,0002.98
2022-09-10 17:13:00,,0834.0,4.99,0.00,27.8,26.3,00.0,36.5,29.7,26.0,0000.0,0004.24,0003.19,0002.97
2022-09-10 17:14:00,,0834.0,4.99,0.00,27.8,26.3,00.0,36.5,29.7,26.0,0000.0,0004.23,0003.18,0002.95
2022-09-10 17:15:00,,0834.0,5.00,0.00,27.8,26.3,00.0,36.5,29.7,26.1,0000.0,0004.25,0003.19,0002.94
2022-09-10 17:16:00,,0834.0,5.00,0.00,27.8,26.3,00.0,36.5,29.7,26.2,0000.0,0004.18,0003.17,0002.94
2022-09-10 17:17:00,,0834.0,5.01,0.00,27.8,26.3,00.0,36.5,29.7,27.2,0000.0,0004.06,0003.15,0002.92
2022-09-10 17:18:00,,0834.0,4.98,0.00,27.8,26.3,00.0,36.5,29.7,26.9,0000.0,0003.93,0003.13,0002.90
2022-09-10 17:19:00,,0834.0,5.01,0.00,27.8,26.3,00.0,36.5,29.7,26.3,0000.0,0003.90,0003.11,0002.89
2022-09-10 17:20:00,,0834.0,5.01,0.00,27.8,26.3,00.0,36.5,29.7,26.2,0000.0,0003.74,0003.08,0002.86
2022-09-10 17:21:00,,0834.0,4.98,0.00,27.8,26.3,00.0,36.5,29.7,26.2,0000.0,0003.77,0003.10,0002.87
2022-09-10 17:22:00,,0834.0,5.00,0.00,27.8,26.4,00.0,36.5,29.7,26.2,0000.0,0003.90,0003.13,0002.88
2022-09-10 17:23:00,,0834.0,5.01,0.00,27.8,26.4,00.0,36.5,29.7,26.1,0000.0,0003.89,0003.12,0002.86
2022-09-10 17:24:00,,0834.0,5.00,0.00,27.8,26.3,00.0,36.5,29.7,26.3,0000.0,0003.87,0003.11,0002.84
2022-09-10 17:25:00,,0834.0,5.00,0.00,27.8,26.3,00.0,36.6,29.7,26.4,0000.0,0003.81,0003.07,0002.82
2022-09-10 17:26:00,,0834.0,5.00,0.00,27.8,26.3,00.0,36.5,29.7,26.7,0000.0,0003.68,0003.00,0002.77
2022-09-10 17:27:00,,0834.0,5.00,0.00,27.8,26.4,00.0,36.5,29.7,27.0,0000.0,0003.64,0002.96,0002.74
2022-09-10 17:28:00,,0834.0,5.00,0.00,27.8,26.4,00.0,36.6,29.7,26.8,0000.0,0003.62,0002.94,0002.71
2022-09-10 17:29:00,,0834.0,4.99,0.00,27.8,26.4,00.0,36.6,29.7,26.8,0000.0,0003.76,0002.92,0002.69
2022-09-10 17:30:00,,0834.0,5.01,0.00,27.8,26.4,00.0,36.6,29.7,26.7,0000.0,0003.83,0002.91,0002.68
2022-09-10 17:31:00,,0834.0,5.00,0.00,27.8,26.4,00.0,36.6,29.7,26.7,0000.0,0003.82,0002.91,0002.67
2022-09-10 17:32:00,,0834.0,5.00,0.00,27.8,26.3,00.0,36.6,29.7,26.6,0000.0,0003.80,0002.89,0002.66
2022-09-10 17:33:00,,0834.0,4.99,0.00,27.8,26.3,00.0,36.6,29.7,26.4,0000.0,0003.71,0002.85,0002.64
2022-09-10 17:34:00,,0834.0,5.00,0.00,27.8,26.3,00.0,36.6,29.7,26.3,0000.0,0003.76,0002.86,0002.63
2022-09-10 17:35:00,,0834.0,5.00,0.00,27.8,26.3,00.0,36.6,29.7,26.2,0000.0,0003.75,0002.87,0002.64
2022-09-10 17:36:00,,0834.0,5.01,0.00,27.8,26.3,00.0,36.6,29.7,26.2,0000.0,0003.84,0002.90,0002.65
2022-09-10 17:37:00,,0834.0,5.00,0.00,27.8,26.3,00.0,36.6,29.7,26.3,0000.0,0003.90,0002.94,0002.67
2022-09-10 17:38:00,,0834.0,4.99,0.00,27.9,26.3,00.0,36.6,29.7,26.3,0000.0,0003.92,0002.94,0002.68
2022-09-10 17:39:00,,0834.0,5.00,0.00,27.9,26.3,00.0,36.6,29.7,26.4,0000.0,0003.87,0002.92,0002.67
2022-09-10 17:40:00,,0834.0,5.00,0.00,27.9,26.3,00.0,36.6,29.7,26.4,0000.0,0003.68,0002.90,0002.66
2022-09-10 17:41:00,,0834.0,4.99,0.00,27.9,26.3,00.0,36.6,29.7,26.5,0000.0,0003.70,0002.91,0002.64
2022-09-10 17:42:00,,0834.0,5.00,0.00,27.9,26.4,00.0,36.6,29.7,26.6,0000.0,0003.71,0002.90,0002.63
2022-09-10 17:43:00,,0834.0,5.01,0.00,27.9,26.4,00.0,36.6,29.8,26.6,0000.0,0003.65,0002.87,0002.61
2022-09-10 17:44:00,,0834.0,5.00,0.00,27.9,26.4,00.0,36.6,29.8,26.4,0000.0,0003.60,0002.83,0002.59
2022-09-10 17:45:00,,0834.0,5.00,0.00,27.9,26.4,00.0,36.6,29.7,26.4,0000.0,0003.48,0002.79,0002.58
2022-09-10 17:46:00,,0834.0,4.99,0.00,27.9,26.4,00.0,36.6,29.7,26.3,0000.0,0003.43,0002.75,0002.55
2022-09-10 17:47:00,,0834.0,5.01,0.00,27.9,26.4,00.0,36.6,29.8,26.4,0000.0,0003.37,0002.72,0002.53
2022-09-10 17:48:00,,0834.0,4.99,0.00,27.9,26.4,00.0,36.6,29.8,26.3,0000.0,0003.42,0002.73,0002.52
2022-09-10 17:49:00,,0834.0,5.01,0.00,27.9,26.4,00.0,36.6,29.8,26.2,0000.0,0003.45,0002.75,0002.53
2022-09-10 17:50:00,,0834.0,5.01,0.00,27.9,26.4,00.0,36.6,29.8,26.2,0000.0,0003.43,0002.75,0002.52
2022-09-10 17:51:00,,0834.0,5.00,0.00,27.9,26.4,00.0,36.6,29.8,26.1,0000.0,0003.46,0002.77,0002.54
2022-09-10 17:52:00,,0834.0,4.98,0.00,27.9,26.4,00.0,36.6,29.8,26.3,0000.0,0003.38,0002.75,0002.54
2022-09-10 17:53:00,,0834.0,5.01,0.00,27.9,26.4,00.0,36.6,29.8,26.0,0000.0,0003.40,0002.78,0002.56
2022-09-10 17:54:00,,0834.0,5.00,0.00,27.9,26.4,00.0,36.6,29.8,25.8,0000.0,0003.53,0002.84,0002.59
2022-09-10 17:55:00,,0834.0,5.00,0.00,27.9,26.4,00.0,36.6,29.8,25.9,0000.0,0003.59,0002.87,0002.61
2022-09-10 17:56:00,,0834.0,5.00,0.00,27.9,26.4,00.0,36.6,29.8,26.0,0000.0,0003.62,0002.90,0002.63
2022-09-10 17:57:00,,0834.0,4.99,0.00,27.9,26.4,00.0,36.7,29.8,26.2,0000.0,0003.63,0002.92,0002.66
2022-09-10 17:58:00,,0834.0,5.01,0.00,27.9,26.4,00.0,36.7,29.8,26.2,0000.0,0003.63,0002.94,0002.69
2022-09-10 17:59:00,,0834.0,5.00,0.00,27.9,26.5,00.0,36.7,29.8,26.2,0000.0,0003.61,0002.96,0002.72
